Time,TemperatureF,DewpointF,PressureIn,WindDirection,WindDirectionDegrees,WindSpeedMPH,WindSpeedGustMPH,Humidity,HourlyPrecipIn,Conditions,Clouds,dailyrainin,SoftwareType,DateUTC
2013-04-18 00:11:00,53.6,31.0,30.38,NE,34,2.0,4.0,42,0.00,,,0.00,weatherlink.com 1.10,2013-04-18 04:11:00,
2013-04-18 00:26:00,53.6,31.0,30.39,ENE,75,1.0,2.0,42,0.00,,,0.00,weatherlink.com 1.10,2013-04-18 04:26:00,
2013-04-18 00:41:00,53.5,31.0,30.40,ENE,75,0.0,3.0,43,0.00,,,0.00,weatherlink.com 1.10,2013-04-18 04:41:00,
2013-04-18 00:56:00,53.3,32.0,30.40,NNE,15,2.0,3.0,44,0.00,,,0.00,weatherlink.com 1.10,2013-04-18 04:56:00,
2013-04-18 01:11:00,53.4,31.0,30.41,ENE,64,3.0,6.0,42,0.00,,,0.00,weatherlink.com 1.10,2013-04-18 05:11:00,
2013-04-18 01:41:00,53.0,30.0,30.41,ENE,61,4.0,7.0,42,0.00,,,0.00,weatherlink.com 1.10,2013-04-18 05:41:00,
2013-04-18 01:56:00,52.6,30.0,30.40,ENE,65,9.0,12.0,43,0.00,,,0.00,weatherlink.com 1.10,2013-04-18 05:56:00,
2013-04-18 02:11:00,52.1,31.0,30.39,ENE,77,4.0,12.0,45,0.00,,,0.00,weatherlink.com 1.10,2013-04-18 06:11:00,
2013-04-18 02:26:00,51.1,33.0,30.39,East,89,4.0,11.0,51,0.00,,,0.00,weatherlink.com 1.10,2013-04-18 06:26:00,
2013-04-18 02:41:00,50.3,34.0,30.39,ENE,67,6.0,9.0,53,0.00,,,0.00,weatherlink.com 1.10,2013-04-18 06:41:00,
2013-04-18 02:56:00,49.1,36.0,30.39,ENE,63,3.0,6.0,62,0.00,,,0.00,weatherlink.com 1.10,2013-04-18 06:56:00,
2013-04-18 03:11:00,48.5,38.0,30.40,ENE,58,1.0,5.0,66,0.00,,,0.00,weatherlink.com 1.10,2013-04-18 07:11:00,
2013-04-18 03:41:00,48.9,37.0,30.41,East,95,2.0,6.0,64,0.00,,,0.00,weatherlink.com 1.10,2013-04-18 07:41:00,
2013-04-18 03:56:00,48.9,36.0,30.42,ESE,108,2.0,4.0,61,0.00,,,0.00,weatherlink.com 1.10,2013-04-18 07:56:00,
2013-04-18 04:11:00,48.8,34.0,30.43,ENE,77,4.0,6.0,57,0.00,,,0.00,weatherlink.com 1.10,2013-04-18 08:11:00,
2013-04-18 04:26:00,48.5,34.0,30.43,ESE,116,3.0,4.0,58,0.00,,,0.00,weatherlink.com 1.10,2013-04-18 08:26:00,
2013-04-18 04:41:00,48.3,32.0,30.43,ENE,64,1.0,5.0,54,0.00,,,0.00,weatherlink.com 1.10,2013-04-18 08:41:00,
2013-04-18 04:56:00,48.4,31.0,30.44,SSW,203,0.0,5.0,52,0.00,,,0.00,weatherlink.com 1.10,2013-04-18 08:56:00,
2013-04-18 05:11:00,48.5,31.0,30.44,ENE,72,0.0,5.0,52,0.00,,,0.00,weatherlink.com 1.10,2013-04-18 09:11:00,
2013-04-18 05:26:00,48.4,31.0,30.45,ENE,65,9.0,9.0,52,0.00,,,0.00,weatherlink.com 1.10,2013-04-18 09:26:00,
2013-04-18 05:42:00,48.2,32.0,30.44,East,91,3.0,13.0,53,0.00,,,0.00,weatherlink.com 1.10,2013-04-18 09:42:00,
2013-04-18 05:57:00,48.0,32.0,30.45,ESE,109,1.0,8.0,55,0.00,,,0.00,weatherlink.com 1.10,2013-04-18 09:57:00,
2013-04-18 06:12:00,47.5,34.0,30.44,East,100,2.0,9.0,60,0.00,,,0.00,weatherlink.com 1.10,2013-04-18 10:12:00,
2013-04-18 06:27:00,47.6,35.0,30.44,ESE,116,1.0,8.0,61,0.00,,,0.00,weatherlink.com 1.10,2013-04-18 10:27:00,
2013-04-18 06:42:00,48.3,34.0,30.45,ENE,68,5.0,8.0,59,0.00,,,0.00,weatherlink.com 1.10,2013-04-18 10:42:00,
2013-04-18 06:57:00,48.6,34.0,30.45,ENE,64,3.0,8.0,58,0.00,,,0.00,weatherlink.com 1.10,2013-04-18 10:57:00,
2013-04-18 07:12:00,49.0,34.0,30.45,ENE,58,3.0,8.0,56,0.00,,,0.00,weatherlink.com 1.10,2013-04-18 11:12:00,
2013-04-18 07:27:00,49.0,33.0,30.46,ESE,104,2.0,9.0,55,0.00,,,0.00,weatherlink.com 1.10,2013-04-18 11:27:00,
2013-04-18 07:42:00,49.2,33.0,30.46,ESE,105,5.0,10.0,55,0.00,,,0.00,weatherlink.com 1.10,2013-04-18 11:42:00,
2013-04-18 07:57:00,49.1,33.0,30.46,East,89,8.0,12.0,55,0.00,,,0.00,weatherlink.com 1.10,2013-04-18 11:57:00,
2013-04-18 08:12:00,48.4,34.0,30.47,ENE,75,12.0,15.0,58,0.00,,,0.00,weatherlink.com 1.10,2013-04-18 12:12:00,
2013-04-18 08:27:00,49.1,34.0,30.47,ENE,57,10.0,12.0,57,0.00,,,0.00,weatherlink.com 1.10,2013-04-18 12:27:00,
2013-04-18 08:42:00,48.7,35.0,30.47,East,79,4.0,11.0,60,0.00,,,0.00,weatherlink.com 1.10,2013-04-18 12:42:00,
2013-04-18 08:57:00,48.5,35.0,30.47,ENE,71,5.0,12.0,60,0.00,,,0.00,weatherlink.com 1.10,2013-04-18 12:57:00,
2013-04-18 09:12:00,48.5,35.0,30.46,SSE,152,1.0,12.0,61,0.00,,,0.00,weatherlink.com 1.10,2013-04-18 13:12:00,
2013-04-18 09:27:00,49.4,36.0,30.46,ENE,63,10.0,15.0,60,0.00,,,0.00,weatherlink.com 1.10,2013-04-18 13:27:00,
2013-04-18 09:42:00,49.5,36.0,30.45,ENE,70,4.0,11.0,61,0.00,,,0.00,weatherlink.com 1.10,2013-04-18 13:42:00,
2013-04-18 09:57:00,50.4,37.0,30.45,ENE,67,10.0,13.0,60,0.00,,,0.00,weatherlink.com 1.10,2013-04-18 13:57:00,
2013-04-18 10:12:00,49.7,37.0,30.45,ENE,74,7.0,-999.0,61,-99.99,,,0.00,weatherlink.com 1.10,2013-04-18 14:12:00,
2013-04-18 10:27:00,50.0,37.0,30.46,NE,40,9.0,13.0,61,0.00,,,0.00,weatherlink.com 1.10,2013-04-18 14:27:00,
2013-04-18 10:42:00,50.8,37.0,30.46,ENE,63,10.0,13.0,59,0.00,,,0.00,weatherlink.com 1.10,2013-04-18 14:42:00,
2013-04-18 10:57:00,51.8,36.0,30.45,East,91,8.0,12.0,56,0.00,,,0.00,weatherlink.com 1.10,2013-04-18 14:57:00,
2013-04-18 11:12:00,51.2,35.0,30.46,NE,56,8.0,13.0,54,0.00,,,0.00,weatherlink.com 1.10,2013-04-18 15:12:00,
2013-04-18 11:27:00,50.8,34.0,30.45,NE,56,8.0,13.0,54,0.00,,,0.00,weatherlink.com 1.10,2013-04-18 15:27:00,
2013-04-18 11:42:00,52.0,35.0,30.44,ESE,120,6.0,13.0,52,0.00,,,0.00,weatherlink.com 1.10,2013-04-18 15:42:00,
2013-04-18 11:57:00,53.8,35.0,30.43,NNE,23,1.0,11.0,50,0.00,,,0.00,weatherlink.com 1.10,2013-04-18 15:57:00,
2013-04-18 12:12:00,55.1,36.0,30.42,ENE,65,5.0,10.0,48,0.00,,,0.00,weatherlink.com 1.10,2013-04-18 16:12:00,
2013-04-18 12:27:00,55.4,35.0,30.42,ESE,102,7.0,13.0,46,0.00,,,0.00,weatherlink.com 1.10,2013-04-18 16:27:00,
2013-04-18 12:43:00,56.2,35.0,30.40,East,80,11.0,12.0,45,0.00,,,0.00,weatherlink.com 1.10,2013-04-18 16:43:00,
2013-04-18 12:58:00,57.4,34.0,30.39,East,89,15.0,15.0,42,0.00,,,0.00,weatherlink.com 1.10,2013-04-18 16:58:00,
2013-04-18 13:13:00,57.8,35.0,30.38,ENE,63,10.0,12.0,42,0.00,,,0.00,weatherlink.com 1.10,2013-04-18 17:13:00,
2013-04-18 13:28:00,58.4,34.0,30.37,SE,126,9.0,12.0,40,0.00,,,0.00,weatherlink.com 1.10,2013-04-18 17:28:00,
2013-04-18 13:43:00,58.8,34.0,30.36,East,79,5.0,12.0,39,0.00,,,0.00,weatherlink.com 1.10,2013-04-18 17:43:00,
2013-04-18 13:58:00,59.2,34.0,30.36,ESE,103,5.0,11.0,39,0.00,,,0.00,weatherlink.com 1.10,2013-04-18 17:58:00,
2013-04-18 14:13:00,60.5,34.0,30.35,West,276,1.0,8.0,37,0.00,,,0.00,weatherlink.com 1.10,2013-04-18 18:13:00,
2013-04-18 14:28:00,63.6,34.0,30.34,SSE,167,8.0,12.0,33,0.00,,,0.00,weatherlink.com 1.10,2013-04-18 18:28:00,
2013-04-18 14:44:00,63.5,34.0,30.34,ESE,119,5.0,17.0,33,0.00,,,0.00,weatherlink.com 1.10,2013-04-18 18:44:00,
2013-04-18 14:58:00,63.2,33.0,30.33,South,180,7.0,11.0,33,0.00,,,0.00,weatherlink.com 1.10,2013-04-18 18:58:00,
2013-04-18 15:14:00,63.1,33.0,30.32,SW,225,10.0,14.0,33,0.00,,,0.00,weatherlink.com 1.10,2013-04-18 19:14:00,
2013-04-18 15:29:00,62.5,33.0,30.32,West,259,1.0,16.0,33,0.00,,,0.00,weatherlink.com 1.10,2013-04-18 19:29:00,
2013-04-18 15:44:00,62.4,33.0,30.32,WSW,246,10.0,14.0,33,0.00,,,0.00,weatherlink.com 1.10,2013-04-18 19:44:00,
2013-04-18 15:59:00,62.0,33.0,30.32,SSW,207,6.0,16.0,34,0.00,,,0.00,weatherlink.com 1.10,2013-04-18 19:59:00,
2013-04-18 16:14:00,61.4,31.0,30.32,West,260,6.0,15.0,32,0.00,,,0.00,weatherlink.com 1.10,2013-04-18 20:14:00,
2013-04-18 16:29:00,61.4,31.0,30.30,SSW,207,9.0,19.0,32,0.00,,,0.00,weatherlink.com 1.10,2013-04-18 20:29:00,
2013-04-18 16:44:00,60.8,30.0,30.31,SSW,212,5.0,16.0,31,0.00,,,0.00,weatherlink.com 1.10,2013-04-18 20:44:00,
2013-04-18 16:59:00,60.4,29.0,30.31,SW,225,3.0,16.0,31,0.00,,,0.00,weatherlink.com 1.10,2013-04-18 20:59:00,
2013-04-18 17:14:00,59.8,30.0,30.31,SSE,160,7.0,18.0,32,0.00,,,0.00,weatherlink.com 1.10,2013-04-18 21:14:00,
2013-04-18 17:28:00,59.5,29.0,30.31,SW,218,3.0,12.0,32,0.00,,,0.00,weatherlink.com 1.10,2013-04-18 21:28:00,
2013-04-18 17:44:00,58.6,28.0,30.31,WNW,301,5.0,15.0,31,0.00,,,0.00,weatherlink.com 1.10,2013-04-18 21:44:00,
2013-04-18 18:14:00,57.5,28.0,30.30,SW,228,9.0,13.0,33,0.00,,,0.00,weatherlink.com 1.10,2013-04-18 22:14:00,
2013-04-18 18:29:00,57.4,28.0,30.30,SW,225,9.0,11.0,33,0.00,,,0.00,weatherlink.com 1.10,2013-04-18 22:29:00,
2013-04-18 18:44:00,57.1,27.0,30.29,SSW,205,4.0,9.0,32,0.00,,,0.00,weatherlink.com 1.10,2013-04-18 22:44:00,
2013-04-18 18:58:00,57.0,27.0,30.29,South,191,7.0,9.0,32,0.00,,,0.00,weatherlink.com 1.10,2013-04-18 22:58:00,
2013-04-18 19:14:00,56.7,26.0,30.28,South,173,6.0,9.0,31,0.00,,,0.00,weatherlink.com 1.10,2013-04-18 23:14:00,
2013-04-18 19:29:00,56.2,27.0,30.28,SSW,208,4.0,13.0,33,0.00,,,0.00,weatherlink.com 1.10,2013-04-18 23:29:00,
2013-04-18 19:44:00,55.9,29.0,30.28,SW,229,8.0,14.0,36,0.00,,,0.00,weatherlink.com 1.10,2013-04-18 23:44:00,
2013-04-18 19:58:00,55.7,31.0,30.27,SW,217,7.0,13.0,39,0.00,,,0.00,weatherlink.com 1.10,2013-04-18 23:58:00,
2013-04-18 20:14:00,55.1,34.0,30.27,SW,217,6.0,14.0,46,0.00,,,0.00,weatherlink.com 1.10,2013-04-19 00:14:00,
2013-04-18 20:29:00,54.5,36.0,30.27,SW,219,3.0,12.0,51,0.00,,,0.00,weatherlink.com 1.10,2013-04-19 00:29:00,
2013-04-18 20:44:00,54.3,37.0,30.27,SW,232,4.0,14.0,53,0.00,,,0.00,weatherlink.com 1.10,2013-04-19 00:44:00,
2013-04-18 20:59:00,53.8,38.0,30.26,WSW,248,4.0,8.0,56,0.00,,,0.00,weatherlink.com 1.10,2013-04-19 00:59:00,
2013-04-18 21:14:00,53.4,39.0,30.26,WSW,252,1.0,9.0,59,0.00,,,0.00,weatherlink.com 1.10,2013-04-19 01:14:00,
2013-04-18 21:29:00,53.1,39.0,30.26,SW,217,4.0,9.0,60,0.00,,,0.00,weatherlink.com 1.10,2013-04-19 01:29:00,
2013-04-18 21:44:00,52.8,39.0,30.25,SW,219,3.0,9.0,61,0.00,,,0.00,weatherlink.com 1.10,2013-04-19 01:44:00,
2013-04-18 21:59:00,53.0,40.0,30.24,SW,226,3.0,7.0,61,0.00,,,0.00,weatherlink.com 1.10,2013-04-19 01:59:00,
2013-04-18 22:14:00,52.8,40.0,30.24,SE,134,3.0,12.0,62,0.00,,,0.00,weatherlink.com 1.10,2013-04-19 02:14:00,
2013-04-18 22:29:00,52.7,41.0,30.23,SW,223,10.0,14.0,64,0.00,,,0.00,weatherlink.com 1.10,2013-04-19 02:29:00,
2013-04-18 22:44:00,52.6,41.0,30.23,SSE,161,6.0,13.0,65,0.00,,,0.00,weatherlink.com 1.10,2013-04-19 02:44:00,
2013-04-18 22:58:00,52.4,42.0,30.22,SW,217,4.0,14.0,67,0.00,,,0.00,weatherlink.com 1.10,2013-04-19 02:58:00,
2013-04-18 23:14:00,52.2,42.0,30.21,South,181,2.0,13.0,68,0.00,,,0.00,weatherlink.com 1.10,2013-04-19 03:14:00,
2013-04-18 23:29:00,52.3,42.0,30.20,SE,146,4.0,11.0,69,0.00,,,0.00,weatherlink.com 1.10,2013-04-19 03:29:00,
2013-04-18 23:44:00,52.4,43.0,30.20,WSW,245,3.0,11.0,70,0.00,,,0.00,weatherlink.com 1.10,2013-04-19 03:44:00,
2013-04-18 23:59:00,52.5,43.0,30.19,SW,230,4.0,10.0,71,0.00,,,0.00,weatherlink.com 1.10,2013-04-19 03:59:00,